Back to catalog

STARLINK-6331

AliveCommunicationsVLEO
NORAD 57351·PAYLOAD·🇺🇸 United States

Launched Jul 16, 2023 from Cape Canaveral Space Force Station

Loading…

Next Passes (next 24 hours)

TLE

FreshSource: CelesTrak SupGP

Epoch: Sep 14, 2026, 21:20 UTC

1 57351C 23099Z   26257.88937500  .00027432  00000+0  99385-3 0  2577
2 57351  43.0023 260.1690 0002153 265.7840 174.3018 15.27554990    14

Track STARLINK-6331 in real time with AllMySat

Download on the App Store